Wind_Speed
26 25 25 26 26 25 24 24 24 25 26 27 25 25 24 23 22 22 23 22 21 21 21 21 20 20 20 20 20 21 21 21 20 19 18 18 18 19 20 20 20 21 21 22
26 25 25 26 27 26 26 26 26 27 28 27 27 25 24 23 22 22 21 22 22 21 21 21 21 21 21 21 21 20 20 19 19 19 19 19 19 20 21 21 21 22 22 23
26 25 26 27 26 25 25 26 26 28 29 30 28 26 25 25 23 23 22 21 22 21 20 20 21 21 21 21 20 20 19 19 19 20 20 20 21 21 21 21 22 22 23 24
25 25 27 27 26 26 25 26 27 28 28 28 27 26 26 26 24 24 24 23 23 22 21 20 20 20 20 20 19 19 19 20 20 20 21 21 21 21 22 22 23 23 24 24
24 24 26 27 27 26 27 27 26 26 26 26 26 26 25 26 25 24 25 24 23 22 22 20 19 19 19 19 19 20 21 21 22 22 22 22 23 23 23 24 24 24 24 24
25 26 27 27 27 27 27 28 27 26 26 26 26 26 26 27 27 25 25 24 23 22 21 21 20 19 19 19 20 21 21 22 22 23 23 23 24 24 23 23 23 23 23 24
25 26 28 27 28 28 29 29 28 27 26 26 27 27 27 27 26 26 25 24 23 22 22 21 21 20 20 20 21 22 22 23 23 24 24 24 24 24 23 24 24 24 24 24
25 25 27 27 27 28 29 29 29 28 27 26 26 27 27 26 25 25 24 23 22 22 22 21 22 22 21 21 22 22 22 23 23 23 23 23 23 24 24 24 25 25 24 24
25 26 27 27 27 28 29 29 28 26 27 26 25 25 24 24 24 22 21 21 22 22 22 22 23 23 22 22 22 22 22 23 24 23 23 23 24 24 24 25 25 25 25 25
23 24 24 25 24 26 28 27 28 27 26 26 25 25 25 26 25 24 22 22 23 23 24 23 24 24 23 23 22 22 23 23 23 24 24 24 24 24 24 25 25 25 25 24
22 22 23 23 24 25 26 26 26 27 26 26 26 26 26 25 24 24 24 24 25 25 24 24 24 24 24 23 23 23 23 23 23 24 24 23 23 24 24 24 23 23 23 23
21 21 22 23 24 25 25 25 26 26 26 27 27 27 26 25 26 26 25 25 25 25 25 24 24 24 23 23 23 23 23 23 23 23 23 23 23 23 23 22 22 22 23 22
20 20 21 21 22 23 24 24 25 25 25 26 26 27 27 26 26 26 26 26 27 26 25 25 24 24 23 24 23 23 23 23 22 22 23 23 23 23 23 23 22 22 22 22
18 19 20 21 21 21 22 23 24 24 25 26 26 27 27 27 26 25 25 26 27 26 25 25 24 24 24 24 24 23 22 22 22 22 22 22 22 22 22 22 22 22 22 22
19 19 20 20 21 21 20 21 22 23 24 24 24 24 25 25 25 24 25 25 25 25 25 24 24 24 24 24 24 24 22 22 23 22 22 21 21 21 21 21 22 21 21 21
18 19 19 20 20 20 20 20 20 21 22 23 23 22 22 22 23 23 23 24 24 24 24 24 24 24 24 24 24 23 22 21 21 21 20 19 19 19 19 19 19 19 19 19
17 18 18 18 19 19 20 20 20 20 21 21 21 22 22 21 21 22 22 23 24 23 23 23 23 23 23 23 22 22 21 19 19 20 20 19 18 18 17 17 17 17 17 17
16 16 17 18 18 17 18 20 20 21 21 21 20 20 21 21 21 21 22 22 22 22 23 23 22 22 22 22 21 21 20 19 19 19 19 19 18 18 17 17 16 16 16 16
16 16 17 17 17 18 19 19 20 20 21 20 20 20 20 20 20 20 20 20 19 20 21 21 21 21 22 22 21 21 20 20 20 20 20 19 19 19 18 18 17 17 17 17
16 16 16 16 16 17 18 18 18 19 20 20 20 19 19 19 19 19 19 18 19 19 20 20 20 21 22 22 22 22 21 21 21 21 20 19 19 19 19 18 18 18 17 18
16 16 16 16 16 16 17 17 17 18 18 19 19 18 18 17 18 18 18 18 19 20 20 20 20 21 21 22 22 22 22 21 20 20 20 19 19 19 19 19 18 18 18 17
16 16 16 16 16 16 16 16 17 17 18 18 18 17 16 16 16 16 16 17 18 19 19 19 20 20 21 21 22 21 21 20 20 19 20 20 19 19 19 19 18 18 18 18
15 16 16 16 16 16 16 16 17 17 17 17 18 17 17 17 17 16 16 16 17 18 18 18 18 19 19 20 21 21 21 21 20 20 20 21 21 20 20 19 19 18 18 18
14 15 15 15 15 15 16 16 17 16 16 17 17 17 17 17 17 17 16 17 17 18 18 18 19 19 19 19 20 21 21 22 21 21 21 21 21 20 21 21 20 20 20 20
14 14 15 15 15 15 16 16 17 17 17 17 17 17 17 17 17 17 16 15 16 16 16 17 18 19 19 19 19 19 20 20 20 20 19 20 20 20 21 21 21 20 20 21
12 13 13 14 15 16 16 17 17 17 17 16 17 17 17 16 16 16 16 16 16 16 16 16 16 17 18 18 18 18 19 19 19 19 19 19 20 20 20 21 21 20 21 21
13 14 14 15 15 15 16 16 16 17 17 16 16 16 16 16 16 17 17 17 18 18 17 17 17 16 16 17 17 17 17 17 17 17 18 18 19 20 21 21 21 20 20 20
Wind_Direction
254 253 254 256 252 250 251 259 265 265 268 270 272 275 277 279 280 280 283 284 283 282 279 276 274 272 270 270 270 270 268 268 270 271 272 272 272 271 270 271 273 274 272 269
256 255 253 255 256 252 249 255 260 264 266 268 269 272 274 276 278 279 281 282 281 280 279 275 272 271 271 270 270 269 267 267 269 270 270 271 271 271 272 272 273 274 273 271
255 254 253 250 254 256 254 257 256 260 264 265 269 271 272 273 276 282 282 280 279 279 277 275 272 272 271 269 268 267 267 268 269 270 271 272 272 272 274 274 274 276 275 273
257 256 254 253 253 255 255 258 260 260 261 265 269 272 273 273 275 277 279 278 278 279 278 275 272 272 271 268 267 266 266 268 270 271 271 272 273 273 274 273 274 276 277 276
254 255 257 259 255 255 258 260 261 260 260 264 269 272 271 274 277 277 277 275 274 275 277 277 272 268 268 267 267 268 268 268 270 271 272 273 274 274 274 274 275 276 278 277
254 254 254 254 257 258 260 260 259 258 260 262 264 267 270 273 275 275 273 273 271 270 271 272 271 268 268 268 268 269 271 272 273 273 273 275 275 274 274 274 276 276 278 277
256 255 255 256 258 258 257 261 261 260 261 263 263 266 269 271 271 271 271 268 269 268 269 271 272 272 271 271 271 271 271 273 275 274 274 274 274 275 275 275 275 276 277 276
257 257 255 256 257 256 258 261 261 262 264 266 265 268 268 268 269 269 268 266 266 267 269 272 273 273 272 272 272 272 272 274 276 275 274 275 274 273 273 275 275 276 277 278
256 257 258 259 258 258 258 260 263 264 265 267 267 268 268 267 266 267 269 268 268 267 269 272 272 272 273 274 274 274 274 275 274 274 274 274 274 272 272 274 276 276 275 277
258 257 257 257 259 260 261 262 264 264 265 266 266 267 268 267 266 267 270 269 270 269 270 272 272 270 272 273 272 273 274 274 274 275 274 273 273 273 272 273 274 276 276 277
262 262 262 260 261 262 261 264 266 265 267 269 269 269 269 267 266 267 267 268 269 269 270 271 271 271 272 272 272 272 272 273 275 275 276 277 275 273 274 274 273 274 276 276
262 267 267 264 263 262 263 264 265 268 270 269 270 270 269 268 268 268 268 268 269 268 269 270 269 270 271 271 271 270 270 271 273 275 275 276 275 274 274 273 273 274 275 277
266 268 269 268 267 266 265 267 269 271 272 271 271 271 270 270 270 268 267 267 268 268 267 266 267 269 270 270 270 270 272 272 272 274 275 274 274 273 272 270 271 273 274 275
268 267 269 269 270 272 270 269 271 272 273 273 273 272 271 270 270 268 266 266 266 266 266 266 266 269 269 269 268 269 271 271 271 274 275 273 273 273 271 269 270 271 273 274
271 270 270 270 270 272 276 275 272 273 275 274 273 273 273 271 269 268 266 266 265 264 264 265 267 269 269 268 269 269 269 271 272 273 273 274 275 273 272 271 271 271 272 273
273 272 272 272 273 275 279 281 279 277 276 274 273 273 273 273 271 269 268 267 266 265 263 265 267 268 268 268 270 269 270 270 270 270 271 273 274 272 271 272 272 274 274 271
273 272 273 274 275 278 280 281 282 280 278 277 275 274 274 275 273 272 272 270 267 264 263 265 267 267 268 267 268 269 269 269 269 268 268 269 269 269 270 271 273 275 276 273
277 276 278 278 278 280 282 282 284 283 280 280 279 277 278 278 276 275 275 274 269 263 261 261 262 263 266 267 268 268 268 267 267 268 268 267 267 266 266 267 271 273 276 277
282 282 281 281 281 283 286 287 286 285 283 281 281 278 278 277 277 276 275 273 269 267 265 263 261 261 263 265 266 266 266 266 266 267 267 267 266 264 265 267 269 271 271 274
282 283 282 284 286 289 292 291 291 290 287 283 281 279 278 278 278 276 272 271 271 270 267 266 266 264 263 263 263 265 267 267 265 265 264 265 265 263 264 268 270 271 272 272
280 284 287 288 289 292 294 294 293 292 290 285 281 279 279 279 279 276 274 274 274 271 269 267 267 264 261 262 264 265 266 266 266 265 264 264 264 262 263 267 269 269 271 272
279 282 285 289 290 292 294 294 294 293 292 288 283 280 279 281 280 278 277 276 276 274 271 268 267 267 266 265 264 263 264 264 265 264 263 263 262 261 262 265 267 269 270 272
279 280 284 289 290 292 295 295 295 294 292 289 285 282 281 281 280 278 280 281 280 276 271 268 268 269 268 266 265 263 263 264 265 265 264 263 262 263 262 264 265 268 270 273
279 276 279 285 290 291 294 297 296 294 291 290 287 284 284 284 282 279 278 280 281 278 273 269 268 268 267 268 266 264 263 265 267 268 266 265 263 263 261 262 264 267 269 271
283 282 284 286 290 293 294 297 298 296 292 290 286 284 282 283 283 283 280 281 281 278 274 271 269 267 267 268 267 265 265 266 267 269 268 266 264 265 263 262 264 267 268 271
287 288 289 291 294 296 297 299 299 298 296 294 291 287 284 282 283 285 284 283 283 283 280 276 275 272 270 268 266 264 263 266 268 268 267 266 265 267 265 265 265 265 268 272
289 291 292 293 295 298 299 300 301 301 300 296 291 287 285 285 286 285 283 281 280 280 279 276 274 272 269 266 265 264 263 264 266 266 265 265 265 265 264 263 264 266 269 270
Height
5781 5782 5784 5785 5786 5787 5788 5788 5787 5787 5786 5784 5783 5782 5781 5780 5779 5779 5778 5777 5776 5776 5775 5776 5776 5776 5775 5776 5775 5776 5776 5777 5777 5778 5778 5779 5779 5780 5780 5781 5781 5780 5780 5780
5773 5775 5777 5777 5778 5779 5781 5781 5781 5779 5779 5778 5777 5776 5776 5776 5774 5773 5772 5772 5771 5771 5770 5770 5771 5770 5770 5770 5770 5770 5771 5772 5773 5773 5774 5774 5774 5775 5775 5775 5775 5774 5774 5774
5766 5768 5769 5769 5771 5772 5773 5773 5774 5772 5773 5771 5770 5771 5771 5770 5768 5767 5767 5766 5765 5765 5765 5765 5765 5765 5765 5765 5765 5766 5766 5767 5767 5768 5768 5768 5769 5769 5769 5769 5769 5768 5768 5767
5759 5761 5761 5764 5765 5765 5765 5765 5765 5764 5764 5763 5763 5764 5764 5763 5762 5762 5762 5761 5760 5760 5759 5759 5759 5759 5759 5759 5760 5760 5761 5761 5762 5762 5762 5763 5763 5763 5763 5763 5762 5762 5761 5761
5752 5753 5754 5756 5757 5757 5758 5758 5758 5757 5758 5758 5758 5757 5756 5756 5755 5755 5755 5755 5754 5754 5754 5754 5754 5754 5754 5754 5754 5755 5755 5756 5756 5756 5756 5756 5756 5756 5756 5756 5755 5755 5754 5754
5744 5745 5747 5749 5749 5749 5751 5750 5750 5751 5751 5751 5751 5751 5751 5750 5750 5749 5749 5749 5748 5749 5748 5748 5748 5748 5749 5749 5749 5749 5749 5750 5750 5750 5750 5749 5749 5749 5748 5748 5748 5748 5747 5747
5737 5738 5738 5740 5741 5742 5744 5743 5743 5743 5744 5744 5743 5744 5744 5743 5743 5742 5742 5742 5742 5743 5743 5743 5743 5743 5743 5743 5743 5743 5743 5743 5743 5742 5742 5742 5741 5741 5741 5741 5741 5741 5740 5740
5730 5731 5732 5732 5733 5735 5735 5734 5734 5735 5735 5735 5736 5736 5736 5736 5735 5735 5735 5735 5736 5736 5736 5737 5737 5737 5736 5736 5736 5736 5736 5736 5735 5735 5735 5734 5734 5734 5734 5734 5734 5733 5733 5732
5723 5725 5724 5723 5725 5725 5726 5727 5726 5726 5727 5729 5729 5729 5729 5728 5728 5728 5727 5729 5730 5730 5730 5731 5730 5730 5730 5729 5729 5729 5729 5729 5728 5728 5728 5727 5727 5727 5727 5727 5726 5726 5725 5725
5715 5716 5716 5716 5716 5717 5717 5718 5719 5720 5720 5721 5722 5722 5721 5721 5721 5721 5722 5722 5723 5723 5724 5724 5724 5723 5723 5723 5722 5722 5722 5722 5721 5721 5721 5720 5720 5720 5720 5719 5719 5718 5718 5718
5709 5709 5709 5709 5709 5710 5710 5711 5711 5712 5713 5714 5714 5714 5713 5713 5714 5714 5715 5715 5715 5716 5716 5716 5716 5716 5716 5715 5715 5715 5715 5714 5714 5714 5713 5713 5712 5712 5712 5712 5711 5711 5711 5711
5702 5702 5703 5703 5703 5703 5704 5704 5704 5705 5705 5706 5706 5706 5706 5706 5705 5706 5706 5707 5707 5708 5708 5708 5708 5708 5708 5708 5708 5708 5707 5707 5707 5706 5706 5706 5705 5705 5705 5705 5705 5704 5704 5704
5697 5697 5697 5696 5696 5696 5697 5697 5697 5697 5698 5698 5698 5697 5697 5696 5696 5697 5698 5698 5699 5699 5700 5700 5700 5701 5701 5701 5701 5700 5700 5700 5700 5699 5699 5698 5698 5698 5698 5698 5698 5698 5697 5697
5691 5691 5691 5691 5690 5690 5690 5690 5690 5690 5690 5690 5690 5689 5689 5688 5688 5689 5689 5690 5690 5691 5691 5692 5693 5693 5693 5693 5693 5692 5692 5692 5692 5692 5692 5691 5691 5691 5691 5691 5691 5691 5691 5690
5686 5686 5685 5685 5685 5684 5684 5683 5683 5683 5683 5682 5682 5681 5680 5680 5680 5680 5681 5681 5681 5682 5683 5684 5685 5685 5685 5685 5685 5685 5685 5685 5684 5685 5684 5684 5684 5684 5684 5684 5684 5684 5684 5684
5681 5680 5680 5679 5679 5679 5678 5677 5677 5676 5676 5675 5674 5673 5673 5672 5672 5673 5673 5673 5673 5674 5675 5676 5677 5677 5677 5677 5677 5677 5677 5677 5677 5677 5677 5677 5677 5677 5677 5677 5677 5677 5677 5677
5675 5675 5675 5674 5673 5673 5672 5671 5671 5670 5669 5668 5667 5667 5666 5666 5666 5666 5665 5665 5665 5666 5667 5668 5669 5669 5669 5669 5670 5670 5670 5670 5670 5670 5670 5671 5671 5671 5671 5671 5671 5671 5671 5670
5671 5670 5670 5669 5668 5667 5666 5665 5664 5663 5662 5661 5661 5660 5660 5659 5659 5659 5659 5658 5658 5659 5660 5661 5661 5662 5663 5663 5663 5663 5663 5663 5663 5664 5664 5664 5665 5665 5665 5666 5666 5665 5665 5665
5667 5666 5665 5664 5662 5661 5660 5659 5658 5657 5656 5655 5654 5654 5653 5653 5652 5652 5652 5651 5652 5652 5653 5653 5654 5655 5656 5656 5656 5656 5657 5657 5657 5658 5658 5658 5659 5659 5659 5660 5660 5660 5660 5660
5662 5661 5660 5659 5658 5656 5655 5654 5652 5651 5650 5649 5648 5648 5647 5647 5646 5646 5645 5645 5646 5645 5646 5646 5647 5648 5649 5649 5649 5650 5650 5650 5650 5651 5651 5652 5652 5653 5653 5654 5654 5654 5654 5654
5657 5657 5656 5654 5653 5652 5650 5649 5647 5646 5645 5644 5643 5642 5641 5641 5640 5640 5640 5640 5640 5639 5639 5640 5640 5641 5641 5642 5642 5643 5643 5643 5644 5644 5645 5646 5646 5647 5647 5648 5648 5648 5649 5648
5653 5652 5651 5650 5649 5647 5646 5645 5643 5642 5640 5639 5638 5637 5636 5636 5635 5634 5634 5634 5633 5633 5633 5633 5634 5634 5635 5635 5635 5636 5636 5637 5638 5638 5639 5639 5640 5640 5641 5641 5642 5642 5643 5643
5648 5647 5647 5646 5645 5643 5642 5641 5639 5638 5636 5635 5634 5633 5632 5631 5630 5629 5629 5629 5628 5627 5627 5628 5628 5628 5628 5628 5629 5629 5630 5630 5631 5631 5632 5632 5633 5634 5635 5635 5636 5636 5636 5637
5644 5643 5642 5641 5640 5639 5638 5636 5635 5633 5632 5630 5629 5628 5627 5626 5625 5624 5624 5623 5623 5622 5622 5622 5622 5622 5622 5622 5623 5623 5624 5624 5624 5625 5625 5626 5626 5627 5628 5628 5629 5630 5630 5630
5640 5639 5638 5637 5636 5635 5634 5632 5630 5629 5627 5625 5624 5623 5622 5621 5621 5619 5618 5618 5618 5617 5617 5617 5617 5616 5616 5616 5617 5617 5618 5619 5619 5619 5619 5620 5620 5621 5621 5622 5622 5623 5623 5623
5636 5635 5634 5633 5632 5631 5629 5627 5626 5624 5622 5621 5619 5618 5617 5616 5615 5614 5614 5613 5613 5613 5612 5612 5612 5611 5611 5611 5611 5612 5612 5612 5613 5613 5613 5614 5614 5614 5615 5616 5616 5617 5617 5617
5632 5631 5630 5629 5628 5626 5625 5623 5621 5619 5618 5616 5615 5613 5612 5611 5611 5610 5609 5608 5608 5607 5607 5607 5607 5607 5606 5606 5606 5606 5607 5607 5607 5607 5608 5608 5608 5608 5609 5609 5610 5610 5610 5610